User: anonymous   Login
Location: Newark
(7.0858°N, 171.3717°E)
Time: 12:34:22
(UTC+00:00)
Language:

A-11 Canister half - Orbit

View from above orbital plane
View from above orbital plane
View from above satellite
View from above satellite

Ground track
Ground track

The orbit data is extracted from the following two-line orbital elements,

1    51U 60009C   21131.83075055 -.00000017  00000-0  67113-3 0  9992
2    51  47.2143  51.5032 0107211  58.3343 302.7850 12.18275377704114
Epoch (UTC): 11 May 2021 19:56:16
Eccentricity: 0.0107211
inclination: 47.2143°
perigee height: 1514 km
apogee height: 1685 km
right ascension of ascending node: 51.5032°
argument of perigee: 58.3343°
revolutions per day: 12.18275377
mean anomaly at epoch: 302.7850°
orbit number at epoch: 70411

The dashed part of the orbit path shows where the satellite is in the earth's shadow,  

DLR